SCP
0 0 0 0 0 0 0 0 0 0 0 0 0 0 0 0 0 0 0 0 0 0 0 0 0 0 0 0 0 0 0 0
0 0 0 0 0 0 0 0 0 0 0 0 0 0 0 0 0 0 0 0 0 0 0 0 0 0 0 0 0 0 0 0
0 0 0 0 0 0 0 0 0 0 0 0 0 0 0 0 0 0 0 0 0 0 0 0 0 0 0 0 0 0 0 0
0 0 0 0 0 0 0 0 0 0 0 0 0 0 0 0 0 -0 0 0 0 0 0 0 0 0 0 0 0 0 0 0
0 0 0 0 0 0 0 0 0 0 0 0 0 0 0 0 0 0 0 0 0 0 0 0 0 0 0 0 0 0 0 0
0 0 0 0 0 0 0 0 0 0 0 0 0 0 0 0 0 0 0 0 0 0 0 0 0 0 0 0 -0 -0 -0 0
0 0 0 0 0 0 0 0 0 0 0 0 0 0 0 0 0 0 0 0 0 0 -0 -0 0 0 -0 -0 -0 -0 -0 0
0 0 0 0 0 0 0 0 0 0 0 0 0 0 0 -0 0 0 0 0 0 -0 -0 -0 -0 -0 -0 -0 -0 -0 -0 -0
0 0 0 0 0 0 0 0 0 0 0 0 0 -0 -0 -0 -0 0 0 0 -0 -0 -0 -0 -0 -0 -0 -0 -0 -0 -0 0
0 0 0 0 0 0 0 0 0 0 0 0 -0 -0 -0 -0 -0 -0 -0 -0 -0 -0 -0 -0 -0 -0 -0 -0 -0 -0 0 0
0 0 0 0 0 0 0 0 0 0 0 0 0 -0 -0 -0 -0 0 0 0 0 -0 -0 0 0 0 0 0 0 -0 -0 0
0 0 0 0 0 0 0 0 0 0 0 0 0 0 0 0 0 0 0 0 0 0 0 0 0 0 0 0 0 0 0 0
0 0 0 0 0 0 0 0 0 0 0 0 0 0 0 0 0 0 0 0 0 0 0 0 0 0 0 0 0 0 0 0
0 0 0 0 0 0 0 0 0 0 0 0 0 0 0 0 0 0 0 0 0 0 0 0 0 -0 0 0 -0 0 -0 0
0 0 0 0 0 0 0 0 0 -0 0 0 0 0 0 0 0 0 0 0 0 -0 0 -0 0 0 0 0 0 -0 0 0
0 0 0 0 0 0 0 0 0 0 0 0 0 0 0 0 0 0 0 0 0 0 0 0 0 0 0 0 0 0 0 0
0 0 0 0 0 -0 0 0 0 -0 0 0 0 0 0 0 0 0 0 0 0 0 0 0 0 0 0 0 0 0 0 0
0 0 0 0 0 0 -0 -0 0 0 0 0 0 0 0 -0 0 0 0 0 0 0 0 0 0 0 0 0 0 0 0 0
0 0 0 0 0 0 0 0 -0 0 0 0 -0 0 0 0 0 0 0 0 0 0 0 0 0 0 0 0 0 0 0 0
0 0 0 0 0 0 0 0 -0 0 -0 -0 0 0 0 0 0 0 0 0 0 0 0 0 0 0 0 0 0 0 0 0
Wind_Speed_500mb
68 68 68 71 70 71 74 71 66 64 63 64 67 60 61 60 63 66 64 59 62 54 55 57 55 55 54 57 66 59 62 62
64 65 74 75 73 70 70 66 63 61 59 56 59 63 61 65 67 67 65 61 59 56 51 52 53 52 55 69 59 56 58 53
68 76 74 76 80 74 74 61 54 60 75 70 66 65 68 66 62 62 62 57 58 55 59 54 52 56 51 54 65 57 54 59
76 68 81 81 78 75 64 54 74 71 67 64 65 64 65 60 61 63 60 60 59 61 65 56 58 55 58 54 53 55 56 54
67 75 75 74 69 60 60 84 71 65 61 64 59 60 57 56 58 54 59 58 58 58 57 53 58 58 55 58 53 54 59 58
66 77 72 72 58 81 71 67 64 63 63 60 56 55 54 56 51 54 53 55 49 50 53 55 54 50 50 49 55 61 63 61
74 64 69 58 78 70 67 62 63 61 58 55 55 52 53 51 53 48 49 45 51 49 47 44 44 44 43 37 39 43 48 55
66 66 54 76 71 63 56 58 59 56 56 52 51 52 48 45 45 43 47 50 50 43 38 36 37 37 40 45 45 51 54 52
65 55 69 72 65 54 58 63 61 58 53 54 46 41 38 37 39 42 43 43 41 44 43 37 38 38 39 39 40 44 43 43
56 58 68 68 62 56 60 62 57 53 43 43 41 37 31 36 41 40 37 41 38 37 35 34 31 28 28 31 43 51 49 51
46 67 68 66 61 53 58 59 51 48 43 39 34 39 33 32 28 32 39 30 28 24 22 24 20 17 18 22 29 39 43 44
55 64 64 67 61 53 51 54 47 40 36 39 41 35 36 32 31 31 32 24 21 16 13 15 13 8 3 4 8 16 25 32
59 57 58 62 61 53 46 49 45 35 31 44 39 37 42 38 32 29 30 28 22 17 14 9 10 11 12 14 14 22 29 32
59 59 54 59 56 51 43 44 42 35 39 48 45 44 48 33 32 31 27 29 25 21 23 16 7 9 14 17 26 33 41 48
55 57 56 51 50 47 38 37 36 33 32 36 38 43 38 33 36 36 33 34 35 27 21 18 19 24 21 27 34 39 49 50
53 54 48 46 45 42 34 31 31 32 34 34 36 41 33 30 32 35 30 39 50 50 48 44 40 35 30 29 30 36 55 67
50 46 43 42 41 35 31 29 28 30 29 28 28 30 27 28 25 25 23 29 41 39 36 37 34 31 28 26 33 52 70 77
46 44 41 39 37 36 35 32 29 28 24 24 23 25 21 24 23 20 23 26 31 31 32 30 27 31 35 36 43 56 61 71
38 33 32 34 35 34 35 33 31 28 24 18 15 19 16 20 20 20 23 23 25 30 33 30 31 35 37 41 50 64 72 84
38 30 26 29 32 33 35 33 27 23 19 11 12 10 11 15 19 20 22 22 22 25 29 31 33 38 43 53 66 75 90 88
Wind_Direction_500mb
319 318 319 314 314 314 315 312 306 304 302 297 295 291 287 286 284 284 284 283 283 276 276 273 271 264 268 257 249 238 240 239
318 324 320 317 321 320 314 310 307 303 298 295 289 287 287 287 286 285 285 277 276 277 277 274 272 267 261 262 250 235 237 242
328 322 323 323 318 315 312 307 304 299 296 291 285 284 287 290 282 285 287 282 276 275 274 266 270 268 260 262 261 251 240 249
322 327 323 318 318 314 310 305 303 308 303 300 299 298 297 291 289 290 289 284 280 277 282 274 262 265 263 254 246 251 250 252
328 323 321 323 319 314 305 307 311 309 303 304 302 303 298 295 293 287 291 289 287 281 283 276 267 257 262 257 255 252 252 248
327 324 322 320 313 310 318 317 313 310 307 309 307 308 299 297 293 291 292 291 289 284 285 277 273 260 260 255 247 247 250 251
327 321 321 314 320 327 324 317 315 316 315 314 311 309 307 298 293 293 293 288 290 290 286 283 271 261 258 254 249 250 246 246
326 326 318 322 333 329 323 324 325 325 325 319 317 313 308 297 298 295 291 292 296 293 288 276 275 268 258 251 245 244 243 242
328 321 321 333 336 330 331 334 331 329 322 317 322 319 311 309 301 298 303 303 298 293 290 281 266 257 256 250 241 235 237 239
326 318 330 339 343 338 333 334 333 333 330 326 324 322 316 307 307 308 305 305 300 303 296 292 287 281 268 251 239 237 232 230
322 328 334 342 344 341 336 339 338 342 343 338 341 333 329 332 326 323 318 317 317 320 318 310 307 292 278 264 248 233 227 229
319 332 335 336 341 340 338 343 345 349 345 344 350 345 341 340 333 337 347 347 346 337 338 323 323 330 53 107 157 172 187 199
326 331 331 334 338 338 338 345 349 354 347 351 360 1 353 346 348 356 5 11 16 25 11 23 57 80 76 66 100 140 145 151
327 333 332 333 335 337 337 343 349 346 346 355 359 1 354 5 12 19 25 34 30 17 34 47 69 124 114 97 107 121 134 136
327 330 333 334 336 338 339 340 349 356 345 347 3 345 1 15 26 36 53 58 61 57 54 53 79 106 109 122 132 136 141 146
331 334 339 340 340 340 338 338 339 349 359 352 356 344 9 22 33 41 52 75 70 69 68 70 74 80 96 116 131 147 135 132
336 341 343 344 348 351 347 342 337 343 349 348 350 356 9 26 34 48 66 75 80 78 76 69 60 66 83 112 124 129 128 127
344 345 346 351 355 353 351 344 338 338 343 349 358 353 15 31 39 57 71 77 77 73 70 69 63 78 102 112 119 126 128 132
347 348 350 353 352 351 348 343 338 335 340 344 358 352 19 40 49 59 68 72 79 74 66 61 65 86 103 110 123 127 128 129
348 352 352 352 348 346 345 345 343 339 342 352 347 352 29 35 69 66 72 79 82 81 73 67 72 93 110 117 121 124 120 118
Wind_Speed_850mb
68 68 68 71 70 71 74 71 66 64 63 64 67 60 61 60 63 66 64 59 62 54 55 57 55 55 54 57 66 59 62 62
64 65 74 75 73 70 70 66 63 61 59 56 59 63 61 65 67 67 65 61 59 56 51 52 53 52 55 69 59 56 58 53
68 76 74 76 80 74 74 61 54 60 75 70 66 65 68 66 62 62 62 57 58 55 59 54 52 56 51 54 65 57 54 59
76 68 81 81 78 75 64 54 74 71 67 64 65 64 65 60 61 63 60 60 59 61 65 56 58 55 58 54 53 55 56 54
67 75 75 74 69 60 60 84 71 65 61 64 59 60 57 56 58 54 59 58 58 58 57 53 58 58 55 58 53 54 59 58
66 77 72 72 58 81 71 67 64 63 63 60 56 55 54 56 51 54 53 55 49 50 53 55 54 50 50 49 55 61 63 61
74 64 69 58 78 70 67 62 63 61 58 55 55 52 53 51 53 48 49 45 51 49 47 44 44 44 43 37 39 43 48 55
66 66 54 76 71 63 56 58 59 56 56 52 51 52 48 45 45 43 47 50 50 43 38 36 37 37 40 45 45 51 54 52
65 55 69 72 65 54 58 63 61 58 53 54 46 41 38 37 39 42 43 43 41 44 43 37 38 38 39 39 40 44 43 43
56 58 68 68 62 56 60 62 57 53 43 43 41 37 31 36 41 40 37 41 38 37 35 34 31 28 28 31 43 51 49 51
46 67 68 66 61 53 58 59 51 48 43 39 34 39 33 32 28 32 39 30 28 24 22 24 20 17 18 22 29 39 43 44
55 64 64 67 61 53 51 54 47 40 36 39 41 35 36 32 31 31 32 24 21 16 13 15 13 8 3 4 8 16 25 32
59 57 58 62 61 53 46 49 45 35 31 44 39 37 42 38 32 29 30 28 22 17 14 9 10 11 12 14 14 22 29 32
59 59 54 59 56 51 43 44 42 35 39 48 45 44 48 33 32 31 27 29 25 21 23 16 7 9 14 17 26 33 41 48
55 57 56 51 50 47 38 37 36 33 32 36 38 43 38 33 36 36 33 34 35 27 21 18 19 24 21 27 34 39 49 50
53 54 48 46 45 42 34 31 31 32 34 34 36 41 33 30 32 35 30 39 50 50 48 44 40 35 30 29 30 36 55 67
50 46 43 42 41 35 31 29 28 30 29 28 28 30 27 28 25 25 23 29 41 39 36 37 34 31 28 26 33 52 70 77
46 44 41 39 37 36 35 32 29 28 24 24 23 25 21 24 23 20 23 26 31 31 32 30 27 31 35 36 43 56 61 71
38 33 32 34 35 34 35 33 31 28 24 18 15 19 16 20 20 20 23 23 25 30 33 30 31 35 37 41 50 64 72 84
38 30 26 29 32 33 35 33 27 23 19 11 12 10 11 15 19 20 22 22 22 25 29 31 33 38 43 53 66 75 90 88
Wind_Direction_850mb
319 318 319 314 314 314 315 312 306 304 302 297 295 291 287 286 284 284 284 283 283 276 276 273 271 264 268 257 249 238 240 239
318 324 320 317 321 320 314 310 307 303 298 295 289 287 287 287 286 285 285 277 276 277 277 274 272 267 261 262 250 235 237 242
328 322 323 323 318 315 312 307 304 299 296 291 285 284 287 290 282 285 287 282 276 275 274 266 270 268 260 262 261 251 240 249
322 327 323 318 318 314 310 305 303 308 303 300 299 298 297 291 289 290 289 284 280 277 282 274 262 265 263 254 246 251 250 252
328 323 321 323 319 314 305 307 311 309 303 304 302 303 298 295 293 287 291 289 287 281 283 276 267 257 262 257 255 252 252 248
327 324 322 320 313 310 318 317 313 310 307 309 307 308 299 297 293 291 292 291 289 284 285 277 273 260 260 255 247 247 250 251
327 321 321 314 320 327 324 317 315 316 315 314 311 309 307 298 293 293 293 288 290 290 286 283 271 261 258 254 249 250 246 246
326 326 318 322 333 329 323 324 325 325 325 319 317 313 308 297 298 295 291 292 296 293 288 276 275 268 258 251 245 244 243 242
328 321 321 333 336 330 331 334 331 329 322 317 322 319 311 309 301 298 303 303 298 293 290 281 266 257 256 250 241 235 237 239
326 318 330 339 343 338 333 334 333 333 330 326 324 322 316 307 307 308 305 305 300 303 296 292 287 281 268 251 239 237 232 230
322 328 334 342 344 341 336 339 338 342 343 338 341 333 329 332 326 323 318 317 317 320 318 310 307 292 278 264 248 233 227 229
319 332 335 336 341 340 338 343 345 349 345 344 350 345 341 340 333 337 347 347 346 337 338 323 323 330 53 107 157 172 187 199
326 331 331 334 338 338 338 345 349 354 347 351 360 1 353 346 348 356 5 11 16 25 11 23 57 80 76 66 100 140 145 151
327 333 332 333 335 337 337 343 349 346 346 355 359 1 354 5 12 19 25 34 30 17 34 47 69 124 114 97 107 121 134 136
327 330 333 334 336 338 339 340 349 356 345 347 3 345 1 15 26 36 53 58 61 57 54 53 79 106 109 122 132 136 141 146
331 334 339 340 340 340 338 338 339 349 359 352 356 344 9 22 33 41 52 75 70 69 68 70 74 80 96 116 131 147 135 132
336 341 343 344 348 351 347 342 337 343 349 348 350 356 9 26 34 48 66 75 80 78 76 69 60 66 83 112 124 129 128 127
344 345 346 351 355 353 351 344 338 338 343 349 358 353 15 31 39 57 71 77 77 73 70 69 63 78 102 112 119 126 128 132
347 348 350 353 352 351 348 343 338 335 340 344 358 352 19 40 49 59 68 72 79 74 66 61 65 86 103 110 123 127 128 129
348 352 352 352 348 346 345 345 343 339 342 352 347 352 29 35 69 66 72 79 82 81 73 67 72 93 110 117 121 124 120 118